Location: NJAA Observatory
(40.6819°N, 74.8979°W)
Time: 01:58:55
(UTC-04:00)

Vanguard 1 - All Passes

Search period start: 28 May 2016 00:00
Search period end: 07 June 2016 00:00
Orbit: 650 x 3834 km, 34.2° (Epoch: 27 May)

Date Brightness Start Highest point End Pass type
(mag) Time Alt. Az. Time Alt. Az. Time Alt. Az.
28 May - 00:33:01 10° W 00:40:09 29° SSW 00:44:54 10° SSE visible
28 May - 15:19:55 10° S 15:32:09 17° SE 15:42:29 10° ESE daylight
28 May - 17:37:05 10° SW 17:56:03 41° SSE 18:08:15 10° E daylight
28 May - 20:01:58 10° WSW 20:19:26 60° S 20:28:51 10° E daylight
28 May - 22:28:49 10° W 22:41:13 56° SSW 22:47:56 10° ESE visible
29 May - 00:54:53 10° W 01:00:42 21° SW 01:04:54 10° S visible
29 May - 15:37:32 10° S 15:53:18 24° SE 16:05:52 10° E daylight
29 May - 17:57:32 10° SW 18:17:20 48° SSE 18:29:34 10° E daylight
29 May - 20:23:27 10° WSW 20:40:39 64° S 20:49:48 10° E daylight
29 May - 22:50:27 10° W 23:02:07 50° SSW 23:08:37 10° SE visible
30 May - 01:17:18 10° WSW 01:21:08 14° SW 01:24:15 10° SSW visible
30 May - 15:56:21 10° SSW 16:14:28 31° SE 16:28:15 10° E daylight
30 May - 18:18:21 10° SW 18:38:38 54° SSE 18:50:45 10° E daylight
30 May - 20:45:03 10° WSW 21:01:51 65° S 21:10:43 10° ESE visible
30 May - 23:12:07 10° W 23:22:55 42° SSW 23:29:09 10° SE visible
31 May - 14:02:55 10° SSE 14:11:50 13° SE 14:20:09 10° ESE daylight
31 May - 16:15:54 10° SSW 16:35:40 38° SSE 16:50:06 10° E daylight
31 May - 18:39:28 10° WSW 18:59:57 60° SSE 19:11:50 10° E daylight
31 May - 21:06:44 10° W 21:22:59 64° S 21:31:35 10° ESE visible
31 May - 23:33:51 10° W 23:43:36 34° SSW 23:49:30 10° SSE visible
01 Jun - 14:18:47 10° S 14:32:48 20° SE 14:45:21 10° E daylight
01 Jun - 16:35:58 10° SW 16:56:54 45° SSE 17:11:38 10° E daylight
01 Jun - 19:00:49 10° WSW 19:21:17 65° S 19:32:52 10° E daylight
01 Jun - 21:28:28 10° W 21:44:04 60° SSW 21:52:23 10° ESE visible
01 Jun - 23:55:47 10° W 00:04:07 26° SW 00:09:33 10° SSE visible
02 Jun - 14:36:46 10° S 14:53:47 26° SE 15:08:33 10° E daylight
02 Jun - 16:56:28 10° SW 17:18:12 52° SSE 17:32:59 10° E daylight
02 Jun - 19:22:21 10° WSW 19:42:35 67° S 19:53:53 10° E daylight
02 Jun - 21:50:12 10° W 22:05:04 54° SSW 22:13:04 10° SE visible
03 Jun - 00:18:06 10° W 00:24:29 19° SW 00:29:06 10° S visible
03 Jun - 14:55:45 10° SSW 15:14:49 33° SE 15:30:54 10° E daylight
03 Jun - 17:17:17 10° SW 17:39:32 58° SSE 17:54:13 10° E daylight
03 Jun - 19:44:01 10° W 20:03:53 68° S 20:14:50 10° ESE daylight
03 Jun - 22:11:58 10° W 22:25:54 47° SSW 22:33:38 10° SE visible
04 Jun - 00:41:32 10° WSW 00:44:45 12° SW 00:47:29 10° SSW visible
04 Jun - 13:02:20 10° SSE 13:12:21 15° SE 13:22:13 10° ESE daylight
04 Jun - 15:15:23 10° SSW 15:35:54 40° SSE 15:52:47 10° E daylight
04 Jun - 17:38:24 10° WSW 18:00:55 63° SSE 18:15:22 10° E daylight
04 Jun - 20:05:45 10° W 20:25:08 67° S 20:35:44 10° ESE daylight
04 Jun - 22:33:49 10° W 22:46:35 39° SW 22:53:59 10° SSE visible
05 Jun - 13:18:43 10° S 13:33:05 21° SE 13:47:08 10° E daylight
05 Jun - 15:35:30 10° SW 15:57:05 48° SSE 16:14:22 10° E daylight
05 Jun - 17:59:45 10° WSW 18:22:20 68° S 18:36:28 10° E daylight
05 Jun - 20:27:32 10° W 20:46:19 63° SSW 20:56:33 10° ESE daylight
05 Jun - 22:55:49 10° W 23:07:07 30° SW 23:14:05 10° SSE visible
06 Jun - 13:36:55 10° S 13:53:52 28° SE 14:10:19 10° E daylight
06 Jun - 15:55:59 10° SW 16:18:21 54° SSE 16:35:47 10° E daylight
06 Jun - 18:21:16 10° WSW 18:43:45 70° S 18:57:32 10° E daylight
06 Jun - 20:49:20 10° W 21:07:22 58° SSW 21:17:17 10° SE visible
06 Jun - 23:18:08 10° W 23:27:29 23° SW 23:33:46 10° S visible
